Milwaukee General Mitchell International Airport (MKE)


Airport Diagram
Current Weather/Forecast (VFR Conditions)
METAR KMKE 271352Z 25011G20KT 10SM BKN046 OVC055 M04/M13 A3000 RMK AO2 SLP173 T10441128
TAF KMKE 271231Z 2713/2818 22013KT P6SM BKN060 BKN110 FM271800 28011G19KT P6SM SCT022 BKN040 FM272000 30012KT P6SM BKN030 FM272100 31012KT P6SM BKN040 FM280500 35012G21KT P6SM SCT035 FM281700 33007KT P6SM SCT250

All Charts
General
Chart Name Download
AIRPORT DIAGRAM
TAKEOFF MINIMUMS
HOT SPOT

Departures
Chart Name Download
ACCRA FIVE (RNAV)
MITCHELL SEVEN
UECKR SIX (RNAV)

Arrivals
Chart Name Download
GOPAC TWO (RNAV)

Approaches
Chart Name Download
ILS OR LOC RWY 01L
ILS OR LOC RWY 07R
ILS OR LOC RWY 19R
ILS RWY 01L (CAT II - III)
RNAV (RNP) Y RWY 07R
RNAV (RNP) Y RWY 25L
RNAV (GPS) RWY 01L
RNAV (GPS) RWY 01R
RNAV (GPS) RWY 07L
RNAV (GPS) RWY 13
RNAV (GPS) RWY 19L
RNAV (GPS) RWY 19R
RNAV (GPS) RWY 25R
RNAV (GPS) RWY 31
RNAV (GPS) Z RWY 07R
RNAV (GPS) Z RWY 25L
LOC RWY 25L